ARABSAT-5A

Last updated on Thu Nov 21 2024 00:02:41 GMT+0000 (Coordinated Universal Time)

1 36745U 10032B 24324.51510359 .00000155 00000+0 00000+0 0 9994 2 36745 0.0533 30.5569 0003008 184.9070 59.5385 1.00272344 52887
UTC large
Height (km)
Speed (km/s)
/
Latitude / Longitude
Inclination (degrees)
Orbital Period (minutes)
Azimuth
Elevation
Range (km)
Doppler Factor

Next 0 passes for location: London (51.5072 / 0.1276)

Sorry there are no passes over London.